San Angelo, TX

9:18 PM CDT on May 22, 2018 (GMT -0500)
San Angelo Regional-Mathis

Weather History for KSJT - March, 2013

Change the Weather History Date:

Wednesday, March 20, 2013

  Actual Average Record
Temperature  
Mean Temperature 61 °F 59 °F  
Max Temperature 73 °F 72 °F 91 °F (2017)
Min Temperature 49 °F 45 °F 17 °F (1965)
Degree Days  
Heating Degree Days 4 7  
Month to date heating degree days 122 190  
Since 1 July heating degree days 1724 2151  
Cooling Degree Days 0 1  
Month to date cooling degree days 31 17  
Year to date cooling degree days 43 22  
Growing Degree Days 10 (Base 50)    
Moisture  
Dew Point 33 °F    
Average Humidity 39    
Maximum Humidity 57    
Minimum Humidity 20    
Precipitation  
Precipitation 0.00 in 0.04 in 1.06 in (1970)
Month to date precipitation T 0.98  
Year to date precipitation 1.82 3.26  
Snow  
Snow 0.00 in 0.00 in T in (1970)
Month to date snowfall 0.0 0.1  
Since 1 July snowfall 2.8 2.2  
Snow Depth 0.00 in    
Sea Level Pressure  
Sea Level Pressure 30.13 in    
Wind  
Wind Speed 10 mph (ENE)    
Max Wind Speed 21 mph    
Max Gust Speed 26 mph    
Visibility 10 miles    
Events      
T = Trace of Precipitation, MM = Missing Value Source: NWS Daily Summary

Daily Weather History Graph

Daily Weather History Graph

Search for Another Location

Airport or City:

Astronomy

Mar. 20, 2013 Rise Set
Actual Time 7:45 AM CDT 7:53 PM CDT
Civil Twilight 7:21 AM CDT 8:17 PM CDT
Nautical Twilight 6:52 AM CDT 8:46 PM CDT
Astronomical Twilight 6:24 AM CDT 9:14 PM CDT
Moon 1:50 PM CDT (3/20) 3:06 AM CDT (3/20)
Length of Visible Light 12h 56m
Length of Day
12h 08m
First Quarter, 59% of the Moon is Illuminated
Mar 20
First Quarter
Mar 27
Full
Apr 2
Last Quarter
Apr 10
New
Apr 18
First Quarter

Hourly Weather History & Observations

Time (CDT) Temp. Dew Point Humidity Pressure Visibility Wind Dir Wind Speed Gust Speed Precip Events Conditions
12:51 AM 60.1 °F 45.0 °F 57% 30.09 in 10.0 mi NE 17.3 mph - N/A   Partly Cloudy
1:51 AM 59.0 °F 44.1 °F 58% 30.10 in 10.0 mi NE 17.3 mph - N/A   Mostly Cloudy
2:51 AM 55.0 °F 39.0 °F 55% 30.12 in 10.0 mi NE 10.4 mph - N/A   Clear
3:51 AM 55.9 °F 37.0 °F 49% 30.11 in 10.0 mi NE 10.4 mph - N/A   Mostly Cloudy
4:51 AM 53.1 °F 35.1 °F 50% 30.12 in 10.0 mi NE 8.1 mph - N/A   Clear
5:51 AM 51.1 °F 35.1 °F 54% 30.14 in 10.0 mi NE 8.1 mph - N/A   Clear
6:51 AM 50.0 °F 34.0 °F 54% 30.19 in 10.0 mi NNE 10.4 mph - N/A   Clear
7:51 AM 48.9 °F 32.0 °F 52% 30.22 in 10.0 mi NNE 9.2 mph - N/A   Clear
8:51 AM 52.0 °F 30.9 °F 45% 30.25 in 10.0 mi NE 10.4 mph - N/A   Clear
9:51 AM 54.0 °F 30.9 °F 41% 30.27 in 10.0 mi ENE 16.1 mph - N/A   Clear
10:51 AM 57.0 °F 32.0 °F 39% 30.29 in 10.0 mi East 12.7 mph 18.4 mph N/A   Clear
11:51 AM 61.0 °F 30.9 °F 32% 30.27 in 10.0 mi East 15.0 mph 24.2 mph N/A   Clear
12:51 PM 64.0 °F 30.0 °F 28% 30.24 in 10.0 mi East 11.5 mph 21.9 mph N/A   Clear
1:51 PM 66.9 °F 28.9 °F 24% 30.21 in 10.0 mi ENE 11.5 mph - N/A   Clear
2:51 PM 69.1 °F 28.0 °F 22% 30.14 in 10.0 mi ENE 10.4 mph - N/A   Clear
3:51 PM 70.0 °F 28.9 °F 22% 30.10 in 10.0 mi East 11.5 mph 19.6 mph N/A   Clear
4:51 PM 71.1 °F 28.0 °F 20% 30.06 in 10.0 mi Variable 6.9 mph - N/A   Clear
6:51 PM 70.0 °F 28.0 °F 21% 30.03 in 10.0 mi SSE 8.1 mph - N/A   Clear
7:51 PM 68.0 °F 28.9 °F 23% 30.01 in 10.0 mi SE 10.4 mph - N/A   Clear
8:51 PM 64.9 °F 30.0 °F 27% 29.99 in 10.0 mi SE 10.4 mph - N/A   Clear
9:51 PM 64.0 °F 30.9 °F 29% 29.98 in 10.0 mi SE 12.7 mph - N/A   Clear
10:51 PM 62.1 °F 30.0 °F 30% 29.99 in 10.0 mi SE 6.9 mph - N/A   Clear
11:51 PM 59.0 °F 28.9 °F 32% 29.96 in 10.0 mi SE 3.5 mph - N/A   Clear